BYF20 KMYF-KF70

Flight info

Callsign BYF20
Flight time 0h 24m
Altitude 14000
Route VPSBM 2CA4 MURRE TBERD HOMER
Aircraft A320/M-SDE3FGHIRWY/LB1

Departure

Time 2026-04-24 02:50
Airport Montgomery-Gibbs Executive Airport (KMYF)

Arrival

Time 2026-04-24 03:14
Airport French Valley Airport (KF70)
Time Latitude Longitude Altitude Speed Heading
2026-04-24 02:16 32.81181 -117.13755 429 ft 0 kts 296°
2026-04-24 02:44 32.81183 -117.13759 429 ft 3 kts 303°
2026-04-24 02:45 32.81221 -117.13760 426 ft 4 kts
2026-04-24 02:45 32.81230 -117.13756 422 ft 0 kts 26°
2026-04-24 02:45 32.81259 -117.13744 423 ft 15 kts 19°
2026-04-24 02:46 32.81276 -117.13674 418 ft 9 kts 115°
2026-04-24 02:46 32.81235 -117.13569 424 ft 21 kts 114°
2026-04-24 02:46 32.81154 -117.13383 425 ft 27 kts 120°
2026-04-24 02:46 32.81155 -117.13192 421 ft 26 kts 56°
2026-04-24 02:47 32.81194 -117.13153 427 ft 0 kts 22°
2026-04-24 02:48 32.81196 -117.13152 426 ft 2 kts 22°
2026-04-24 02:49 32.81295 -117.13130 425 ft 15 kts 330°
2026-04-24 02:49 32.81390 -117.13391 423 ft 70 kts 296°
2026-04-24 02:49 32.81710 -117.14190 424 ft 139 kts 295°
2026-04-24 02:49 32.82162 -117.15313 933 ft 154 kts 296°
2026-04-24 02:50 32.82621 -117.16445 1802 ft 151 kts 295°
2026-04-24 02:50 32.83090 -117.17585 2425 ft 161 kts 296°
2026-04-24 02:50 32.83613 -117.18863 2761 ft 183 kts 296°
2026-04-24 02:50 32.84206 -117.20316 3072 ft 208 kts 296°
2026-04-24 02:51 32.84870 -117.21934 3430 ft 233 kts 296°
2026-04-24 02:51 32.85624 -117.23760 3956 ft 257 kts 296°
2026-04-24 02:51 32.86430 -117.25698 4854 ft 265 kts 296°
2026-04-24 02:51 32.87255 -117.27678 5824 ft 269 kts 296°
2026-04-24 02:52 32.88085 -117.29688 6798 ft 272 kts 296°
2026-04-24 02:52 32.88863 -117.31559 7687 ft 274 kts 296°
2026-04-24 02:52 32.89721 -117.33589 8678 ft 275 kts 296°
2026-04-24 02:52 32.90598 -117.35631 9546 ft 279 kts 296°
2026-04-24 02:53 32.91508 -117.37674 9882 ft 280 kts 300°
2026-04-24 02:53 32.92827 -117.39376 9988 ft 284 kts 322°
2026-04-24 02:53 32.94649 -117.40309 10002 ft 290 kts 347°
2026-04-24 02:53 32.96671 -117.40229 10009 ft 297 kts 12°
2026-04-24 02:54 32.98600 -117.39283 10005 ft 301 kts 21°
2026-04-24 02:54 33.00501 -117.38235 10004 ft 301 kts 22°
2026-04-24 02:54 33.02373 -117.37200 10007 ft 301 kts 21°
2026-04-24 02:54 33.04280 -117.36149 10012 ft 301 kts 21°
2026-04-24 02:55 33.06183 -117.35104 10006 ft 301 kts 21°
2026-04-24 02:55 33.08085 -117.34062 10006 ft 301 kts 21°
2026-04-24 02:55 33.09990 -117.33020 10004 ft 301 kts 21°
2026-04-24 02:55 33.11276 -117.32318 10007 ft 301 kts 21°
2026-04-24 02:56 33.13183 -117.31279 10012 ft 301 kts 21°
2026-04-24 02:56 33.15069 -117.30252 10004 ft 301 kts 21°
2026-04-24 02:56 33.16998 -117.29197 10007 ft 301 kts 21°
2026-04-24 02:56 33.18878 -117.28164 9995 ft 289 kts 21°
2026-04-24 02:57 33.20598 -117.27209 10003 ft 264 kts 21°
2026-04-24 02:57 33.22242 -117.26299 10001 ft 257 kts 20°
2026-04-24 02:57 33.23861 -117.25409 10009 ft 256 kts 20°
2026-04-24 02:57 33.25475 -117.24523 10014 ft 255 kts 20°
2026-04-24 02:58 33.27091 -117.23639 10007 ft 255 kts 20°
2026-04-24 02:58 33.28708 -117.22756 10012 ft 256 kts 20°
2026-04-24 02:58 33.30325 -117.21872 10009 ft 256 kts 20°
2026-04-24 02:58 33.31942 -117.20985 10009 ft 255 kts 20°
2026-04-24 02:59 33.33555 -117.20098 10013 ft 255 kts 20°
2026-04-24 02:59 33.35169 -117.19209 10011 ft 255 kts 20°
2026-04-24 02:59 33.36787 -117.18318 10014 ft 256 kts 20°
2026-04-24 02:59 33.38422 -117.17509 10000 ft 252 kts
2026-04-24 03:00 33.40128 -117.17075 10005 ft 251 kts
2026-04-24 03:00 33.41837 -117.16642 9877 ft 250 kts
2026-04-24 03:00 33.43538 -117.16206 9746 ft 250 kts
2026-04-24 03:00 33.45236 -117.15772 9619 ft 249 kts
2026-04-24 03:01 33.46934 -117.15339 9483 ft 249 kts
2026-04-24 03:01 33.48624 -117.14910 9353 ft 248 kts
2026-04-24 03:01 33.50313 -117.14479 9225 ft 249 kts
2026-04-24 03:01 33.52038 -117.14038 9107 ft 256 kts
2026-04-24 03:02 33.53763 -117.13598 8985 ft 257 kts
2026-04-24 03:02 33.55511 -117.13150 8859 ft 257 kts
2026-04-24 03:02 33.57260 -117.12703 8733 ft 256 kts
2026-04-24 03:02 33.58999 -117.12260 8610 ft 256 kts
2026-04-24 03:03 33.60738 -117.11817 8481 ft 255 kts
2026-04-24 03:03 33.62471 -117.11376 8368 ft 254 kts
2026-04-24 03:03 33.64193 -117.10939 8194 ft 252 kts
2026-04-24 03:03 33.65905 -117.10502 7867 ft 251 kts
2026-04-24 03:04 33.67605 -117.10067 7613 ft 249 kts
2026-04-24 03:04 33.69305 -117.09632 7414 ft 251 kts
2026-04-24 03:04 33.71031 -117.09191 6951 ft 255 kts 10°
2026-04-24 03:04 33.72737 -117.08752 6763 ft 247 kts 11°
2026-04-24 03:05 33.74421 -117.08319 6314 ft 251 kts 12°
2026-04-24 03:05 33.76131 -117.07877 5995 ft 248 kts 11°
2026-04-24 03:05 33.77787 -117.07449 5715 ft 240 kts 11°
2026-04-24 03:05 33.79428 -117.07028 5135 ft 241 kts 11°
2026-04-24 03:06 33.81007 -117.06621 4883 ft 228 kts 11°
2026-04-24 03:06 33.82510 -117.06265 4847 ft 212 kts
2026-04-24 03:06 33.83920 -117.05965 4846 ft 201 kts
2026-04-24 03:06 33.85279 -117.05686 4842 ft 196 kts
2026-04-24 03:07 33.86627 -117.05437 4834 ft 195 kts
2026-04-24 03:07 33.87945 -117.05694 4837 ft 194 kts 334°
2026-04-24 03:07 33.88910 -117.06769 4834 ft 192 kts 295°
2026-04-24 03:07 33.89091 -117.08330 4796 ft 192 kts 256°
2026-04-24 03:08 33.88409 -117.09679 4797 ft 193 kts 217°
2026-04-24 03:08 33.85794 -117.10152 4745 ft 199 kts 176°
2026-04-24 03:08 33.84424 -117.10018 4608 ft 196 kts 176°
2026-04-24 03:09 33.83065 -117.09879 4561 ft 196 kts 176°
2026-04-24 03:09 33.81704 -117.09741 4521 ft 196 kts 176°
2026-04-24 03:09 33.80342 -117.09604 4476 ft 196 kts 176°
2026-04-24 03:09 33.78986 -117.09468 4431 ft 195 kts 176°
2026-04-24 03:10 33.77647 -117.09333 4382 ft 196 kts 176°
2026-04-24 03:10 33.76293 -117.09196 4344 ft 196 kts 176°
2026-04-24 03:10 33.74934 -117.09058 4303 ft 195 kts 176°
2026-04-24 03:10 33.73582 -117.08921 4260 ft 195 kts 176°
2026-04-24 03:11 33.72231 -117.08938 4125 ft 194 kts 192°
2026-04-24 03:11 33.70918 -117.09285 3906 ft 192 kts 193°
2026-04-24 03:11 33.69617 -117.09631 3653 ft 190 kts 193°
2026-04-24 03:11 33.68332 -117.09972 3404 ft 189 kts 192°
2026-04-24 03:12 33.67046 -117.10310 3141 ft 188 kts 192°
2026-04-24 03:12 33.65777 -117.10645 2902 ft 180 kts 192°
2026-04-24 03:12 33.64618 -117.10951 2661 ft 162 kts 192°
2026-04-24 03:12 33.63585 -117.11223 2445 ft 145 kts 193°
2026-04-24 03:13 33.62632 -117.11474 2262 ft 137 kts 193°
2026-04-24 03:13 33.61712 -117.11716 2076 ft 134 kts 193°
2026-04-24 03:13 33.60810 -117.11958 1918 ft 133 kts 194°
2026-04-24 03:13 33.59913 -117.12210 1721 ft 133 kts 193°
2026-04-24 03:14 33.59012 -117.12450 1567 ft 132 kts 193°
2026-04-24 03:14 33.58122 -117.12666 1391 ft 129 kts 193°
2026-04-24 03:14 33.57354 -117.12869 1362 ft 79 kts 192°
2026-04-24 03:14 33.57108 -117.12933 1361 ft 1 kts 192°
2026-04-24 03:15 33.57020 -117.12957 1361 ft 15 kts 208°
2026-04-24 03:15 33.57020 -117.13025 1359 ft 7 kts 324°
2026-04-24 03:15 33.57089 -117.13017 1359 ft 15 kts
2026-04-24 03:15 33.57175 -117.13027 1362 ft 11 kts 330°
2026-04-24 03:16 33.57240 -117.13027 1363 ft 8 kts 12°